Location: Black Creek
(40.9000°S, 175.5500°E)
Time: 03:38:05
(UTC+00:00)

AQUARIUS - Pass Details

Date: 04 August 2024
Orbit: 640 x 643 km, 98.0° (Epoch: 07 September)

Event Time Altitude Azimuth Distance (km) Brightness Sun altitude
Rises 18:04:10 0° 9° (N) 2,938 7.8 -14.7°
Reaches altitude 10° 18:06:21 10° 7° (N) 2,038 6.9 -14.2°
Maximum altitude 18:10:48 73° 282° (WNW) 683 4.1 -13.4°
Drops below altitude 10° 18:15:18 10° 197° (SSW) 2,069 6.5 -12.6°
Sets 18:17:33 0° 194° (SSW) 2,988 7.3 -12.2°
